User: anonymous   Login
Location: Vancouver
(49.2500°N, 123.1330°W)
Time: 21:55:50
(UTC-07:00)
Language:

JAS-1B - Orbit

View from above orbital plane
View from above orbital plane
View from above satellite
View from above satellite

Ground track
Ground track

The orbit data is extracted from the following two-line orbital elements,

1 20480U 90013C   18114.83459185 -.00000068  00000-0 -84865-4 0  9996
2 20480  99.0622 195.0320 0540728  45.5726 318.8331 12.83418353321707
Epoch (UTC): 24 April 2018 20:01:48
Eccentricity: 0.0540728
inclination: 99.0622°
perigee height: 911 km
apogee height: 1744 km
right ascension of ascending node: 195.0320°
argument of perigee: 45.5726°
revolutions per day: 12.83418353
mean anomaly at epoch: 318.8331°
orbit number at epoch: 32170

The dashed part of the orbit path shows where the satellite is in the earth's shadow,  

DLR